Regional Weather Roundup
Issued by NWS

Home | Current Version | Previous Version | Text Only | Print | Product List | Glossary Off
Versions: 1 2 3 4 5 6 7 8 9 10 11 12 13 14 15 16 17 18 19 20 21 22 23 24 25 26 27 28 29 30 31 32 33 34 35 36 37 38 39 40 41 42 43 44 45 46 47 48 49 50

000
ASUS43 KFSD 192310
RWRSD

WEATHER ROUNDUP FOR SOUTH DAKOTA
NATIONAL WEATHER SERVICE SIOUX FALLS SD
500 PM CST THU JAN 19 2017

NOTE: "FAIR" INDICATES FEW OR NO CLOUDS BELOW 12,000 FEET WITH NO
SIGNIFICANT WEATHER AND/OR OBSTRUCTIONS TO VISIBILITY.


SDZ001>005-009-010-012>017-200000-
NORTHWEST AND NORTH CENTRAL SOUTH DAKOTA

CITY           SKY/WX    TMP DP  RH WIND       PRES   REMARKS
BUFFALO          N/A     37  26  64 W7        29.39S
FAITH            N/A     30  21  69 NW3       29.45
MOBRIDGE       CLOUDY    22  16  78 SE9       29.47F WCI  12
$$

SDZ012>016-024>037-041>051-057-063-072>074-200000-
SOUTHWEST AND SOUTH CENTRAL SOUTH DAKOTA

CITY           SKY/WX    TMP DP  RH WIND       PRES   REMARKS
RAPID CTY ARPT CLOUDY    37  27  67 W5        29.45F
PIERRE         CLOUDY    28  23  81 CALM      29.48F
CUSTER         CLEAR     45  18  34 W9        29.47S
ELLSWORTH AFB  CLOUDY    43  25  49 CALM      29.44F
PHILIP         CLOUDY    28  23  81 N7        29.47R WCI  21
PINE RIDGE     CLEAR     41  28  60 W8        29.46S
SPEARFISH      FAIR      46  25  42 CALM      29.46S
WINNER         FAIR      44  35  70 S9        29.49S
$$

SDZ004>011-016>023-039-040-200000-
NORTHEAST SOUTH DAKOTA

CITY           SKY/WX    TMP DP  RH WIND       PRES   REMARKS
ABERDEEN       FOG       33  31  92 S10       29.57S VSB 1/4 WCI  25
WATERTOWN      FOG       33  33 100 S13       29.59F VSB 1/2 WCI  24
BROOKINGS      LGT RAIN  35  34  96 S12       29.62S VSB 1/2 WCI  27
SISSETON         N/A     36  34  92 S17       29.60R
$$

SDZ017-020-022-023-036>040-048>070-200000-
SOUTHEAST SOUTH DAKOTA

CITY           SKY/WX    TMP DP  RH WIND       PRES   REMARKS
SIOUX FALLS    FOG       38  38 100 SE7       29.64S VSB 1/2
HURON          CLOUDY    36  36 100 SE13      29.56S FOG
CHAMBERLAIN    CLOUDY    41  39  92 SE10      29.52S
MITCHELL       CLOUDY    40  40 100 SE14      29.58F FOG
YANKTON        CLOUDY    39  37  93 SE7       29.62S
$$

ABBREVIATIONS USED IN REMARKS
   TC - TEMPERATURE IN CELSIUS
  WCI - WIND CHILL INDEX
   HX - HEAT INDEX
  VSB - VISIBILITY





USA.gov is the U.S. government's official web portal to all federal, state and local government web resources and services.